Location: Ripley
(48.3812°N, 115.4473°W)
Time: 02:29:10
(UTC+00:00)

RS-15 - Visible Passes

Search period start: 28 June 2022 00:00
Search period end: 08 July 2022 00:00
Orbit: 1881 x 2163 km, 64.8° (Epoch: 27 June)

Date Brightness Start Highest point End Pass type
(mag) Time Alt. Az. Time Alt. Az. Time Alt. Az.
28 Jun 8.9 05:40:47 10° NW 05:52:45 49° NNE 06:04:27 10° ESE visible
28 Jun 8.1 07:53:59 10° NW 08:06:21 77° WSW 08:16:53 15° SSE visible
28 Jun 9.1 10:08:09 10° NW 10:16:43 23° W 10:24:32 11° SW visible
29 Jun 9.1 05:04:22 10° NW 05:16:07 44° NNE 05:27:37 10° E visible
29 Jun 8.2 07:17:50 10° NW 07:30:19 90° ENE 07:41:12 14° SE visible
29 Jun 8.9 09:31:23 10° NW 09:41:18 31° WSW 09:48:52 16° SSW visible
30 Jun 9.2 04:27:51 10° NW 04:39:22 41° NNE 04:50:43 10° E visible
30 Jun 8.3 06:41:40 10° NW 06:54:09 77° NE 07:05:38 12° SE visible
30 Jun 8.6 08:54:53 10° NW 09:05:46 39° WSW 09:13:19 20° SSW visible
01 Jul 8.5 06:05:28 10° NW 06:17:52 66° NE 06:29:52 10° SE visible
01 Jul 8.4 08:18:33 10° NW 08:30:06 50° WSW 08:37:52 22° S visible
01 Jul 9.6 10:37:41 10° W 10:39:08 10° W 10:40:35 10° W visible
02 Jul 8.7 05:29:14 10° NW 05:41:28 57° NE 05:53:21 10° ESE visible
02 Jul 8.2 07:42:19 10° NW 07:54:20 62° WSW 08:02:29 23° S visible
02 Jul 9.4 09:57:47 10° WNW 10:03:59 16° W 10:10:07 10° SW visible
03 Jul 8.8 04:52:56 10° NW 05:04:56 50° NNE 05:16:40 10° ESE visible
03 Jul 8.2 07:06:07 10° NW 07:18:27 75° WSW 07:27:11 22° SSE visible
03 Jul 9.2 09:20:23 10° NW 09:28:43 22° W 09:34:53 14° SW visible
04 Jul 9.0 04:16:33 10° NW 04:28:19 45° NNE 04:39:51 10° E visible
04 Jul 8.2 06:29:57 10° NW 06:42:26 88° SW 06:51:56 20° SE visible
04 Jul 9.0 08:43:35 10° NW 08:53:19 29° WSW 08:59:38 19° SW visible
05 Jul 8.3 05:53:47 10° NW 06:06:17 79° NE 06:16:44 16° SE visible
05 Jul 8.7 08:07:03 10° NW 08:17:48 38° WSW 08:24:27 22° SSW visible
06 Jul 8.4 05:17:36 10° NW 05:30:01 68° NE 05:41:36 11° SE visible
06 Jul 8.5 07:30:42 10° NW 07:42:10 48° WSW 07:49:19 24° S visible
07 Jul 8.6 04:41:23 10° NW 04:53:38 59° NE 05:05:31 10° ESE visible
07 Jul 8.3 06:54:27 10° NW 07:06:25 60° WSW 07:14:13 24° S visible
07 Jul 9.5 09:10:12 10° WNW 09:15:58 15° W 09:21:41 10° WSW visible
